Lexington Weather

Lexington, Massachusetts, USA

32°F
12/8/2019 4:23pm 
  • Lexington Conditions: Mostly cloudy
  • Temperature: 32.4°F / 0.2°CColder 1.0°F than last hour.
  • Dew Point: 18.5°FIncreased 2.7°Fsince last hour.
  • Relative Humidity: 56%Increased 8.0% since last hour.
  • Wind: Wind from SW SW 1 mph, 10-min avg: 2 mph, gust: 4 mph
  • Barometer: 30.41 in Steady
  • Visibility: 10 miles
  • Snow Today: 0.0 in
  •   

Regional Weather Roundup
for Boston / Norton, MA

        
000
ASUS41 KBOX 060210
RWRBOX

REGIONAL WEATHER ROUNDUP
NATIONAL WEATHER SERVICE BOSTON/NORTON MA
900 PM EST THU DEC 05 2019

NOTE:  "FAIR" INDICATES FEW OR NO CLOUDS BELOW 12,000 FEET WITH NO 
SIGNIFICANT WEATHER AND/OR OBSTRUCTIONS TO VISIBILITY.

MAZALL-060300-
EASTERN MASSACHUSETTS
  
CITY           SKY/WX    TMP DP  RH WIND       PRES   REMARKS
BOSTON         MOCLDY    36  17  46 W20G25    29.86R WCI  25          
BEVERLY        CLOUDY    34  18  52 W13       29.84R WCI  25          
LAWRENCE       MOCLDY    33  16  49 W9G22     29.86R WCI  25          
BEDFORD        CLOUDY    33  17  51 W9        29.86R WCI  25          
BLUE HILL        N/A     29  17  61 W17G28    29.82R WCI  17          
NORWOOD        CLOUDY    35  17  47 W14G22    29.87R WCI  26          
MARSHFIELD     FAIR      34  19  55 W10G17    29.85R WCI  26          
PLYMOUTH       FAIR      32  18  56 W14G21    29.86R WCI  22          
TAUNTON        FAIR      34  16  47 W10       29.87R WCI  26          
NEW BEDFORD    FAIR      33  17  51 W14       29.87R WCI  23          
$$

MAZALL-060300-
CAPE COD AND THE ISLANDS
  
CITY           SKY/WX    TMP DP  RH WIND       PRES   REMARKS
FALMOUTH       PTCLDY    34  16  47 W18G28    29.86R WCI  23          
HYANNIS        FAIR      36  16  44 W12G22    29.84R WCI  28          
CHATHAM        CLOUDY    36  17  46 W9G17     29.85R WCI  29          
PROVINCETOWN   FAIR      36  21  54 W25G33    29.84R WCI  24          
NANTUCKET      MOCLDY    37  17  44 W22G32    29.87R WCI  26          
MARTHAS VNYRD  FAIR      36  17  46 W16G26    29.88R WCI  26          
$$
 
MAZALL-060300-
CENTRAL AND WESTERN MASSACHUSETTS
  
CITY           SKY/WX    TMP DP  RH WIND       PRES   REMARKS
WORCESTER      MOCLDY    27  14  58 W9G24     29.84R WCI  18          
FITCHBURG      FAIR      31  16  54 NW14      29.87R WCI  21          
ORANGE         CLOUDY    31  15  52 NW12G23   29.89R WCI  22          
SPRINGFIELD    MOCLDY    31  17  55 NW16G23   29.91R WCI  20          
WESTFIELD      CLOUDY    32  17  54 W17G26    29.92R WCI  21          
NORTH ADAMS    CLOUDY    28  14  55 W15       29.92R WCI  16          
PITTSFIELD     CLOUDY    27  17  66 W22G31    29.89R WCI  13          
$$
 
RIZALL-060300-
RHODE ISLAND
  
CITY           SKY/WX    TMP DP  RH WIND       PRES   REMARKS
PROVIDENCE     FAIR      34  17  50 NW24G33   29.90R WCI  21          
NEWPORT        FAIR      35  17  47 NW20G31   29.89R WCI  24          
BLOCK ISLAND   CLOUDY    36  20  52 W24G31    29.93R WCI  24          
SMITHFIELD     MOCLDY    31  18  58 W13G21    29.87R WCI  21          
WESTERLY       CLOUDY    37  21  52 VRB7      29.93R WCI  32          
$$
 
CTZALL-060300-
CONNECTICUT
  
CITY           SKY/WX    TMP DP  RH WIND       PRES   REMARKS
BRADLEY INTL   FLURRIES  35  19  52 W24G31    29.93R WCI  23          
HARTFORD       CLOUDY    35  20  54 NW13G18   29.96R WCI  26          
BRIDGEPORT     CLOUDY    37  22  54 W10       29.97R WCI  30          
DANBURY        MOCLDY    33  21  61 W8        29.97R WCI  26          
GROTON         MOCLDY    33  21  61 W20G30    29.93R WCI  21          
NEW HAVEN      MOCLDY    39  23  52 NW12      29.96R WCI  32          
CHESTER        CLOUDY    36  23  60 W5        29.94R WCI  32          
MERIDEN        MOCLDY    34  21  59 NW7       29.96R WCI  28          
WILLIMANTIC    CLOUDY    34  19  54 NW16G26   29.94R WCI  24          
OXFORD         MOCLDY    31  22  69 W5        29.94R WCI  26          
$$

MEZ002-015-021-024-NHZ003-005-008-011-012-014-VTZ005-008-060300-
NORTHERN NEW ENGLAND
  
CITY           SKY/WX    TMP DP  RH WIND       PRES   REMARKS
PORTLAND ME    MOCLDY    36  23  59 W12       29.79R WCI  28          
BANGOR ME      MOCLDY    31  23  72 SW3       29.72R                  
CONCORD NH     MOCLDY    30  15  53 W10       29.85R WCI  21          
MANCHESTER NH  FAIR      32  14  47 NW13G21   29.85R WCI  22          
NASHUA NH      FAIR      31  19  61 NW16G23   29.87R WCI  20          
PORTSMOUTH NH  CLOUDY    34  16  46 W14       29.81R WCI  25          
JAFFREY NH     CLOUDY    28  14  55 N12G21    29.85R WCI  18          
KEENE NH       CLOUDY    29  15  56 N9        29.90R WCI  20          
BURLINGTON VT  FLURRIES  27  14  58 W15G22    29.93R WCI  15          
MT. WASHINGTON SNOWSHWR   3   3 100 W63G69      N/A  VSB 1/16WCI -29  
$$

NYZ052-076-060300-
EASTERN NEW YORK
  
CITY           SKY/WX    TMP DP  RH WIND       PRES   REMARKS
ALBANY         FAIR      31  16  54 NW13G22   30.00R WCI  21          
NEW YORK CITY  FAIR      39  23  52 W18G29    30.02R WCI  30          
$$
 
ANZALL-060300-
MARINE OBSERVATIONS
  
STATION/POSITION TIME  TEMP    WIND        PRES    VSBY  WAVE
                       AIR SEA DIR/SP/G                  HT/PER
                 (UTC) (F)     (DEG/KT/KT) (MB)    (MI)  (FT/S)
BOSTON BUOY      0150   37 48  290/ 25/ 29 1009.2R         4/ 4
BUZZARDS BAY     0100   38     290/ 31/ 34 1011.6R
NANTUCKET SOUND  0140   38 44                N/A
MASS BAY-STELLWA 0104   38 46  300/ 19/ 25 1007.4R  1 7/8  3/ 4
ISLE OF SHOALS   0100   36     300/ 20/ 21 1008.1R
S OF BLOCK IS    0200      50                N/A           7/ 6
$$

......................KEY.........................
  SKY/WX - SKY CONDITION/PRESENT WEATHER
  TMP    - TEMPERATURE IN FAHRENHEIT
  DWPT   - DEWPOINT IN FAHRENHEIT
  RH     - RELATIVE HUMIDITY IN PERCENT
  WIND   - DIRECTION AND SPEED IN MPH
  PRES   - MEAN SEA LEVEL PRESSURE IN INCHES OF HG
  WCI    - WIND CHILL INDEX
  VSB    - VISIBILITY IN MILES
  HX     - HEAT INDEX
  TC     - TEMPERATURE IN CELSIUS
  VRB    - VARIABLE WIND DIRECTION
  N/A    - NOT AVAILABLE
  
      

Other recent Regional Weather Roundups

Sun Dec 8, 4:10pm

Sun Dec 8, 4:01pm

Sun Dec 8, 3:10pm

Sun Dec 8, 3:01pm

Sun Dec 8, 2:10pm

Sun Dec 8, 2:01pm

Sun Dec 8, 1:10pm

Sun Dec 8, 1:00pm

Sun Dec 8, 12:10pm

Sun Dec 8, 12:01pm

Sun Dec 8, 11:10am

Sun Dec 8, 11:00am

Sun Dec 8, 10:10am

Sun Dec 8, 10:01am

Sun Dec 8, 9:10am

Sun Dec 8, 9:00am

Sun Dec 8, 8:10am

Sun Dec 8, 8:00am

Sun Dec 8, 7:10am

Sun Dec 8, 7:00am

Sun Dec 8, 6:10am

Sun Dec 8, 6:00am

Sun Dec 8, 5:10am

Sun Dec 8, 5:00am

Sun Dec 8, 4:10am

Sun Dec 8, 4:00am

Sun Dec 8, 3:10am

Sun Dec 8, 3:00am

Sun Dec 8, 2:10am

Sun Dec 8, 2:00am

Sun Dec 8, 1:10am

Sun Dec 8, 1:00am

Sun Dec 8, 12:10am

Sun Dec 8, 12:01am

Sat Dec 7, 11:10pm

Sat Dec 7, 11:00pm

Sat Dec 7, 10:10pm

Sat Dec 7, 10:00pm

Sat Dec 7, 9:10pm

Sat Dec 7, 9:00pm

Sat Dec 7, 8:10pm

Sat Dec 7, 8:00pm

Sat Dec 7, 7:10pm

Sat Dec 7, 7:00pm

Sat Dec 7, 6:10pm

Sat Dec 7, 6:00pm

Sat Dec 7, 5:10pm

Sat Dec 7, 5:00pm

Sat Dec 7, 4:10pm

Sat Dec 7, 4:00pm

Sat Dec 7, 3:10pm

Sat Dec 7, 3:00pm

Sat Dec 7, 2:10pm

Sat Dec 7, 2:01pm

Sat Dec 7, 1:10pm

Sat Dec 7, 1:00pm

Sat Dec 7, 12:10pm

Sat Dec 7, 12:01pm

Sat Dec 7, 11:10am

Sat Dec 7, 11:00am

Sat Dec 7, 10:10am

Sat Dec 7, 10:01am

Sat Dec 7, 9:10am

Sat Dec 7, 9:00am

Sat Dec 7, 8:10am

Sat Dec 7, 8:00am

Sat Dec 7, 7:10am

Sat Dec 7, 7:00am

Sat Dec 7, 6:10am

Sat Dec 7, 6:00am

Sat Dec 7, 5:10am

Sat Dec 7, 5:00am

Sat Dec 7, 4:10am

Sat Dec 7, 4:00am

Sat Dec 7, 3:10am

Sat Dec 7, 3:00am

Sat Dec 7, 2:10am

Sat Dec 7, 2:01am

Sat Dec 7, 1:10am

Sat Dec 7, 1:00am

Sat Dec 7, 12:10am

Sat Dec 7, 12:01am

Fri Dec 6, 11:10pm

Fri Dec 6, 11:00pm

Fri Dec 6, 10:10pm

Fri Dec 6, 10:00pm

Fri Dec 6, 9:10pm

Fri Dec 6, 9:00pm

Fri Dec 6, 8:10pm

Fri Dec 6, 8:00pm

Fri Dec 6, 7:10pm

Fri Dec 6, 7:01pm

Fri Dec 6, 6:10pm

Fri Dec 6, 6:00pm

Fri Dec 6, 5:10pm

Fri Dec 6, 5:00pm

Fri Dec 6, 4:10pm

Fri Dec 6, 4:00pm

Fri Dec 6, 3:10pm

Fri Dec 6, 3:00pm

Fri Dec 6, 2:10pm

Fri Dec 6, 2:00pm

Fri Dec 6, 1:10pm

Fri Dec 6, 1:00pm

Fri Dec 6, 12:10pm

Fri Dec 6, 12:00pm

Fri Dec 6, 11:10am

Fri Dec 6, 11:00am

Fri Dec 6, 10:10am

Fri Dec 6, 10:00am

Fri Dec 6, 9:10am

Fri Dec 6, 9:00am

Fri Dec 6, 8:10am

Fri Dec 6, 8:00am

Fri Dec 6, 7:10am

Fri Dec 6, 7:00am

Fri Dec 6, 6:10am

Fri Dec 6, 6:01am

Fri Dec 6, 5:10am

Fri Dec 6, 5:00am

Fri Dec 6, 4:10am

Fri Dec 6, 4:00am

Fri Dec 6, 3:10am

Fri Dec 6, 3:00am

Fri Dec 6, 2:10am

Fri Dec 6, 2:00am

Fri Dec 6, 1:10am

Fri Dec 6, 1:00am

Fri Dec 6, 12:10am

Fri Dec 6, 12:00am

Thu Dec 5, 11:10pm

Thu Dec 5, 11:00pm

Thu Dec 5, 10:10pm

Thu Dec 5, 10:01pm

Thu Dec 5, 9:01pm

Thu Dec 5, 8:10pm

Thu Dec 5, 8:00pm

Thu Dec 5, 7:10pm

Thu Dec 5, 7:00pm

Thu Dec 5, 6:10pm

Thu Dec 5, 6:00pm

Thu Dec 5, 5:10pm

Thu Dec 5, 5:00pm

Meta data:

ID: dbc5f4c7-a5d2-42df-8a76-6a5b83d9e4be
Link: https://api.weather.gov/products/dbc5f4c7-a5d2-42df-8a76-6a5b83d9e4be